Regional Weather Roundup
Issued by NWS San Angelo, TX

Home | Current Version | Previous Version | Text Only | Print | Product List | Glossary Off
Versions: 1 2 3 4 5 6 7 8 9 10 11 12 13 14 15 16 17 18 19 20 21 22 23 24 25 26 27 28 29 30 31 32 33 34 35 36 37 38 39 40 41 42 43 44 45 46 47 48 49 50

942
ASUS44 KSJT 191810
RWRSJT
WEST CENTRAL TEXAS REGIONAL WEATHER ROUNDUP
NATIONAL WEATHER SERVICE SAN ANGELO TX
1200 PM CST SUN FEB 19 2017

NOTE: "FAIR" INDICATES FEW OR NO CLOUDS BELOW 12,000 FEET WITH NO
SIGNIFICANT WEATHER AND/OR OBSTRUCTIONS TO VISIBILITY.

TXZ049-054-064>066-071>073-076>078-098-099-113-114-127-128-139-140-
154-155-168>170-191900
...LOCATIONS ACROSS WEST CENTRAL TEXAS...

CITY           SKY/WX    TMP DP  RH WIND       PRES   REMARKS
SAN ANGELO     CLOUDY    72  60  66 S14       29.86S
ABILENE        CLOUDY    68  60  75 S12       29.86F
DYESS AFB      CLOUDY    68  62  79 SW10      29.84F
JUNCTION       CLOUDY    72  63  73 S13G21    29.84F
SWEETWATER     CLOUDY    67  59  76 SE10      29.88S
BROWNWOOD      CLOUDY    68  64  88 SE12G21   29.87F HAZE
COLEMAN        CLOUDY    69  62  78 S12       29.87S
SONORA         MOSUNNY   72  63  73 CALM      29.89F
OZONA          NOT AVBL
BRADY          NOT AVBL
$$

TEXAS PANHANDLE/OKLAHOMA PANHANDLE

CITY           SKY/WX    TMP DP  RH WIND       PRES   REMARKS
AMARILLO       MOSUNNY   60  51  72 S17       29.84F
BORGER         SUNNY     66  52  60 S20G25    29.81F
CANADIAN       MOSUNNY   63  53  68 S17G23    29.84F
DALHART        PTSUNNY   58  42  55 S16       29.81F
DUMAS          PTCLDY    58  43  58 S21       29.82S
GUYMON         NOT AVBL
HEREFORD       CLOUDY    57  44  59 S7        29.84F
PAMPA          CLOUDY    60  52  75 S18G25    29.85S
PERRYTON       SUNNY     65  53  65 S20       29.81F
$$

SOUTHERN PANHANDLE/SOUTH PLAINS/ROLLING PLAINS

CITY           SKY/WX    TMP DP  RH WIND       PRES   REMARKS
LUBBOCK        PTSUNNY   66  38  35 S7        29.84S
SNYDER         CLOUDY    67  57  71 S16       29.86F
CHILDRESS      SUNNY     63  54  72 S14       29.86F
SEMINOLE       CLOUDY    65  31  28 W14G20    29.87R
$$

PERMIAN BASIN

CITY           SKY/WX    TMP DP  RH WIND       PRES   REMARKS
MIDLAND        CLOUDY    69  34  27 SW7       29.86F
ODESSA         CLOUDY    70  33  25 W13       29.87S
WINK           CLOUDY    64  32  30 W15       29.87R
$$

FAR WEST/SOUTHWEST MOUNTAINS/TRANS PECOS

CITY           SKY/WX    TMP DP  RH WIND       PRES   REMARKS
ALPINE         CLOUDY    59  32  36 SW18      29.98F
DRYDEN           N/A     69  50  50 NE3       29.86S
EL PASO        MOSUNNY   54  30  40 W17       29.94R
FORT STOCKTON  CLOUDY    67  34  29 SW13      29.88F
GUADALUPE PASS MOSUNNY   52  30  43 SW28G38   29.92R
MARFA          CLOUDY    58  30  34 SW16      29.95F
PECOS          CLOUDY    64  34  32 SW5       29.87F
$$

DALLAS/FORT WORTH METROPLEX

CITY           SKY/WX    TMP DP  RH WIND       PRES   REMARKS
DFW AIRPORT    CLOUDY    71  66  84 SE14      29.89F HAZE
FTW MEACHAM    CLOUDY    70  65  84 E8        29.89F HAZE
DAL-EXECUTIVE  CLOUDY    70  66  87 SE10      29.90F FOG
GRAND PRAIRIE  PTSUNNY   72  64  78 SE12      29.91F FOG
ADDISON        CLOUDY    72  64  78 SE12G18   29.91F HAZE
MESQUITE       NOT AVBL
LANCASTER      CLOUDY    71  65  82 SE14      29.91F HAZE
$$

NORTH CENTRAL TEXAS

CITY           SKY/WX    TMP DP  RH WIND       PRES   REMARKS
SHRMAN/DENISON CLOUDY    65  63  91 E7        29.95S FOG
GAINESVILLE    FOG       64  63  97 SE7       29.94F VSB 3/4
BRIDGEPORT     CLOUDY    66  65  97 SE6       29.91F FOG
DENTON         CLOUDY    67  65  93 SE8       29.90F FOG
WAXAHACHIE     CLOUDY    70  67  90 SE7       29.91F FOG
GRANBURY       CLOUDY    73  66  78 SE8G18    29.89F HAZE
$$

WESTERN NORTH TEXAS

CITY           SKY/WX    TMP DP  RH WIND       PRES   REMARKS
WICHITA FALLS  CLOUDY    73  58  59 S23G29    29.87S
VERNON         MOCLDY    64  55  75 S5        29.89F
BRECKENRIDGE   CLOUDY    74  60  61 S14G20    29.85F HAZE
COMANCHE       CLOUDY    71  65  82 S12       29.87F
$$

CENTRAL AND SOUTH CENTRAL TEXAS

CITY           SKY/WX    TMP DP  RH WIND       PRES   REMARKS
AUSTIN/BERGSTM CLOUDY    79  67  66 SE21      29.84F
WACO           CLOUDY    74  67  78 SE16      29.87F
HILLSBORO      CLOUDY    74  68  81 SE16      29.89F HAZE
TEMPLE         CLOUDY    74  67  78 SE20G25   29.87F
KILLEEN-GRAY   CLOUDY    73  66  78 SE18      29.85F
FORT HOOD      CLOUDY    72  66  81 S14       29.83F
GEORGETOWN     PTSUNNY   75  64  69 SE14G25   29.86F
LAGO VISTA     CLOUDY    76  66  71 SE8G22    29.87F
SAN MARCOS     PTSUNNY   77  66  69 SE20      29.86F FOG
NEW BRAUNFELS  CLOUDY    77  66  68 S16G25    29.85F
RANDOLPH AFB   PTSUNNY   77  68  73 SE16G24   29.85F
SAN ANTONIO    CLOUDY    75  66  73 SE14G25   29.86S
STINSON        CLOUDY    78  67  68 S12       29.83F
PLEASANTON     NOT AVBL
LA GRANGE      CLOUDY    78  69  74 SE15G23   29.87F
GIDDINGS       CLOUDY   N/A N/A N/A S9G17     29.89F
$$

EAST TEXAS

CITY           SKY/WX    TMP DP  RH WIND       PRES   REMARKS
PARIS          CLOUDY    63  61  94 SE10      29.99S
CLARKSVILLE    NOT AVBL
TYLER          CLOUDY    74  65  73 SE18G24   29.94F
LONGVIEW       PTSUNNY   75  65  70 SE12      29.96F
PALESTINE      CLOUDY    71  67  87 SE14      29.95F FOG
NACOGDOCHES    CLOUDY    72  63  73 SE9G18    29.97F
$$

TEXAS HILL COUNTRY AND EDWARDS PLATEAU

CITY           SKY/WX    TMP DP  RH WIND       PRES   REMARKS
LLANO          CLOUDY    73  64  73 S8        29.88F
HORSESHOE BAY  CLOUDY    76  64  67 S12G21    29.86S
KERRVILLE      CLOUDY    72  66  82 SE14      29.87F
FREDERICKSBRG  CLOUDY    72  63  73 S12G20    29.87F
ROCKSPRINGS    MOCLDY    72  63  73 S12       29.88F HAZE
HONDO            N/A     78  68  71 MISG      29.83F
UVALDE         MOCLDY    76  65  70 SE10G18   29.82F
DEL RIO        MOSUNNY   76  64  66 S9        29.79F
$$

SOUTHEAST TEXAS

CITY           SKY/WX    TMP DP  RH WIND       PRES   REMARKS
COLLEGE STN    PTSUNNY   78  67  68 SE21G31   29.89F
CALDWELL       NOT AVBL
CROCKETT       MOCLDY    72  66  83 SE10G17   29.96F HAZE
BRENHAM        CLOUDY    79  69  71 SE15      29.90F
HUNTSVILLE     CLOUDY    72  67  84 SE10      29.94F
CONROE         CLOUDY    71  68  90 SE14      29.95F FOG
HOUSTON BUSH   CLOUDY    72  68  87 SE21G28   29.95F FOG
HOUSTON HOBBY  CLOUDY    72  68  87 SE9G21    29.94F
PERLAND        CLOUDY    77  68  73 SE17G23   29.95F
WHARTON        MOCLDY    77  67  70 SE16G23   29.91F
$$

THE UPPER TEXAS COAST

CITY           SKY/WX    TMP DP  RH WIND       PRES   REMARKS
ORANGE         CLOUDY    73  69  87 SE13      30.01F
PORT ARTHUR    CLOUDY    74  67  78 SE14G23   29.98F
GALVESTON      SUNNY     74  69  85 SE16      29.96F
ANGLETON       CLOUDY    75  69  81 SE15      29.94F
BAY CITY       CLOUDY    77  70  80 SE14G23   29.92F
$$

TEXAS COASTAL BEND, RIO GRANDE PLAINS DEEP SOUTH TEXAS

CITY           SKY/WX    TMP DP  RH WIND       PRES   REMARKS
VICTORIA       CLOUDY    76  69  79 SE22      29.88S
BEEVILLE       CLOUDY    80  71  73 SE21G31   29.85S
ROCKPORT       CLOUDY    73  69  87 SE17      29.87R
PORT ARANSAS   CLOUDY    74  70  87 SE13      29.86S
PORT LAVACA    CLOUDY    73  71  92 SE23G29   29.89S
CORPUS CHRISTI CLOUDY    78  70  76 SE22G33   29.84S
KINGSVILLE NAS CLOUDY    80  72  76 SE21G29   29.82F
COTULLA        CLOUDY    79  65  62 SE8       29.81F
LAREDO         PTSUNNY   81  66  60 S10       29.79F
BROWNSVILLE    CLOUDY    81  71  71 S25G33    29.83F
PORT ISABEL    PTSUNNY   81  71  71 S24G35    29.82F HAZE
HEBBRONVILLE   CLOUDY    78  65  63 S15       29.81F
MCALLEN        PTSUNNY   87  67  51 SE18      29.79F
WESLACO        PTSUNNY   85  68  56 S24G35    29.78F
FALFURRIAS     MOCLDY    82  67  59 SE18      29.79F
EDINBURG       MOCLDY    86  66  51 SE15G22   29.79F
$$




USA.gov is the U.S. government's official web portal to all federal, state and local government web resources and services.